Weather Roundup
Issued by NWS Chicago, IL

Home | Current Version | Previous Version | Graphics & Text | Print | Product List | Glossary On
Versions: 1 2 3 4 5 6 7 8 9 10 11 12 13 14 15 16 17 18 19 20 21 22 23 24 25 26 27 28 29 30 31 32 33 34 35 36 37 38 39 40 41 42 43 44 45 46 47 48 49 50
000
NZUS59 KLOT 282110
HRRLOT

CHICAGO AREA WEATHER ROUNDUP
NATIONAL WEATHER SERVICE CHICAGO/ROMEOVILLE IL
400 PM CDT THU AUG 28 2014

NOTE: "FAIR" INDICATES FEW OR NO CLOUDS BELOW 12,000 FEET WITH NO
SIGNIFICANT WEATHER AND/OR OBSTRUCTIONS TO VISIBILITY.

* THESE STATIONS ARE NOT UNDER NWS QUALITY CONTROL. THEY ALSO MAY NOT
  REPORT WEATHER SUCH AS PRECIPITATION OR FOG.

ILZ005-006-012>014-019>023-282200-
NORTHEAST ILLINOIS

CITY           SKY/WX    TMP DP  RH WIND       PRES   REMARKS
OHARE          PTSUNNY   74  56  53 NE10      30.07F
MIDWAY         PTSUNNY   76  60  57 NE9       30.06F
AURORA         MOSUNNY   80  58  46 SE8       30.05F HX  80
LANSING*       MOSUNNY   76  63  63 NE8       30.06F
JOLIET*        SUNNY     80  61  52 E8        30.05F HX  81
WAUKEGAN       PTSUNNY   70  57  63 E13       30.09F
DUPAGE AIRPORT MOSUNNY   79  57  46 E9        30.06S HX  80
WHEELING       PTSUNNY   72  58  61 NE10      30.09F
KANKAKEE*      MOSUNNY   80  62  54 E6        30.05F HX  81
MORRIS*        MOSUNNY   80  64  58 E7        30.04F HX  82
LEWIS AIRPORT* SUNNY     80  60  51 E7        30.05F HX  81
NORTHERLY IS     N/A     71  61  70 NE12        N/A
$$

WIZ051-052-058>065-066-070>072-282200-
SOUTHEAST WISCONSIN

CITY           SKY/WX    TMP DP  RH WIND       PRES   REMARKS
MILWAUKEE      CLOUDY    68  55  63 E8        30.11F
KENOSHA*       PTSUNNY   71  59  65 NE12      30.10F
RACINE*        PTSUNNY   69  57  65 E12       30.12F
BURLINGTON     PTSUNNY   70  51  49 E10       30.09F
WAUKESHA       MOSUNNY   66  52  59 SE9       30.12F
WEST BEND      CLOUDY    66  52  59 SE6       30.11F
$$

INZ001>003-010>013-019-020-282200-
NORTHWEST INDIANA

CITY           SKY/WX    TMP DP  RH WIND       PRES   REMARKS
GARY*          MOSUNNY   75  63  64 NE9       30.07F
MICHIGAN CITY* NOT AVBL
RENSSELAER*    NOT AVBL
VALPARAISO     MOSUNNY   80  62  54 VRB5      30.07F HX  81
$$

LMZ740>746-282200-
SOUTHERN LAKE MICHIGAN

STATION/POSITION TIME  SKY/WX   TEMP WIND        PRES    VSBY
                                AIR  DIR/SP/G
                 (UTC)          (F)  (DEG/KT/KT) (MB)    (MI)
HARRISON CRIB    2100            68   40/ 11/ 13   N/A
BURNHAM HARBOR   2100            71   30/  9/ 12   N/A
CALUMET HARBOR   2100            72   20/  8/ 11 1017.1F
BURNS HARBOR     NOT AVBL
MICHIGAN CITY    2100            70   10/ 12/ 14   N/A
$$

ABBREVIATIONS USED IN REMARKS
   TC - TEMPERATURE IN CELSIUS
  WCI - WIND CHILL INDEX
   HX - HEAT INDEX
  VSB - VISIBILITY
$$



USA.gov is the U.S. government's official web portal to all federal, state and local government web resources and services.